Погода в Слуцке

Погода в Слуцке : погода сейчас, прогноз погоды и архив. Всё, что Вы хотите узнать о погоде в Слуцке!

Хотите узнать прогноз погоды в Слуцке? Тогда Вам сюда: Погода в Слуцке

Поиск расширенной информации на нашем сайте:

Другие новости

Новости СМИ2

Главная страница сайта

Новости сайта

02.10.2013

Напоминаем, что на нашем новом сайте вы можете получить высокодетализированные прогнозы погоды по пунктам России, СНГ и мира (включающие важные для авиации метеовеличины, такие как направление и скорость ветра, видимость, явления погоды, количество и форма облачности, нижняя и верхняя граница облачности), а также ознакомиться с разнообразными материалами по авиационной метеорологии и подборкой полезных ссылок на эту тему.

Сайт Метеоцентр.Азия посвящён разработке технологий оптимизации авиаметеорологического обслуживания, включая проектирование и перспективное создание нескольких автоматизированных авиаметеорологических систем:
- система выпуска высокодетальных прогностических карт явлений погоды для нижнего воздушного пространства по России и ближнему зарубежью;
- система верификации прогнозов TAF (выпускаемых синоптиками официальных АМСГ РФ и ближнего зарубежья) и AUTOTAF (выпускаемых сайтом Метеоцентр.Азия) - выявление ошибок, онлайн-сопоставление с фактической погодой METAR, автоматическое внесение коррективов в прогнозы при резком отклонении фактической погоды от прогноза, подсчёт оправдываемости прогнозов по элементам и в целом;
- система обработки, анализа и отображения авиаметеорологической информации для применения провайдерами метеорологической информации.

Рекомендуем: Круг стальной нержавеющий 14х17н2 калиброванный www.inotex.su.

Погода в Слуцке - сегодня

Время (UTC), дата Ветер
(°,м/с) 
Видим.   Явления Облачность Т
(°С)
Тd
(°С)
f(%) Тe
(°С)
Pmin
(гПа)
dP
(гПа)
Po
(мм)
O2
(г/м3)
Тmin Tmax R s Состояние
почвы
06 27.08.14 280 (З) 10 км  {ливн. осадки, морось}  9/9 570 м 
[Sc]
+11.7 +10.7 94 +13  1006.5  0.5  740  284  +10.9       
09 27.08.14 270 (З) 16000 м    6/6 600 м 
[Cu med, cong]
+15.3 +10.2 72 +17  1006.8  0.4  741  281           
12 27.08.14 260 (З) 22000 м    8/8 600 м 
[Cu med, cong]
+16.8 +8.6 58 +17  1006.5  -0.2  741  280           
15 27.08.14 260 (З) 5{10}  17000 м    8/8 600 м кучево-дожд. 
[Cb cap]
+18.1 +8.6 54 +18  1006  -0.3  740  278           
18 27.08.14 270 (З) 15000 м    9/9 600 м 
[Sc]
+15 +9.5 70 +16  1006.7  -0.4  741  281    +18.5       
21 27.08.14 250 (З) 12000 м    9/9 750 м 
[Sc]
+13.4 +11 85 +16  1006.9  741  282           
00 28.08.14 280 (З) 12000 м    9/9 600 м 
[Sc]
+13.2 +11.1 87 +16  1007.1  0.2  741  283           
03 28.08.14 320 (СЗ) 14000 м    9/9 600 м 
[Sc]
+12.6 +10.6 88 +14  1007.7  0.6  741  284           
06 28.08.14 290 (З) 15000 м    9/8 600 м верхняя 
[Sc|Ci]
+13.2 +10.9 86 +15  1008.3  0.6  742  283  +11.7         
09 28.08.14 290 (З) 5{10}  15000 м    10/9 600 м средняя 
[Sc|As trans]
+14.7 +11 78 +17  1008.8  0.7  742  282           
12 28.08.14 310 (СЗ) 6-11  16000 м  в посл. час ливневой дождь  9/8 300 м кучево-дожд., средняя 
[Cb cap|Ac und]
+15.3 +12.4 83 +20  1009.6  0.8  743  281      0.4     
15 28.08.14 280 (З) 8-12{11}  20000 м    5/4 600 м средняя 
[Sc diur, vesp|Ac cast]
+17.6 +10.7 64 +19  1009.8  0.3  743  279      0.6     
18 28.08.14 270 (З) 3{12}  15000 м    1/1 600 м 
[Sc]
+12.4 +10.5 88 +14  1011.5  1.4  744  285    +18.5  0.6     
21 28.08.14 270 (З) 13000 м    ясно 
+10.5 +9.5 94 +11  1012.5  0.8  745  287           
00 29.08.14 280 (З) 10 км    1/1 600 м 
[Sc]
+10 +9.4 96 +10  1013.1  0.6  745  288           
03 29.08.14 260 (З) 12000 м    1/1 600 м 
[Sc]
+9 +8.1 94 +9  1013.9  0.7  746  289           
06 29.08.14 290 (З) 14000 м    4/4 600 м 
[Sc]
+11.8 +10.3 91 +13  1014.8  1.1  747  286  +8.4         
09 29.08.14 290 (З) 15000 м    6/6 600 м 
[Cu Sc]
+15.9 +9.8 67 +17  1015.1  0.6  747  283           
12 29.08.14 290 (З) 5{10}  17000 м    5/5 600 м 
[Cu Sc]
+18 +9.9 59 +19  1015.3  0.3  747  281           
15 29.08.14 320 (СЗ) 6{11}  20000 м    6/3 600 м средняя 
[Sc diur, vesp|Ac trans]
+18.5 +7.6 49 +19  1015.4  0.1  747  281           
18 29.08.14 270 (З) 14000 м    1/1 1000 м 
[Sc diur, vesp]
+12.6 +10.6 88 +15  1016.4  0.6  748  286    +18.8       
21 29.08.14 230 (ЮЗ) 12000 м    ясно 
+12 +9 82 +12  1016.5  0.1  748  287           
00 30.08.14 240 (ЮЗ) 10 км    ясно 
+9.5 +8.6 94 +10  1017.2  0.4  748  290           
03 30.08.14 210 (ЮЗ) 10 км    ясно 
+9.4 +8.6 95 +9  1017.2  748  290           
06 30.08.14 220 (ЮЗ) 14000 м    6/0 средняя, верхняя 
[Ac cast|Ci fib]
+13.4 +10.5 83 +16  1017.2  0.3  748  285  +8.9         
Время (UTC), дата Ветер
(°,м/с) 
Видим.   Явления Облачность Т
(°С)
Тd
(°С)
f(%) Тe
(°С)
Pmin
(гПа)
dP
(гПа)
Po
(мм)
O2
(г/м3)
Тmin Tmax R s Состояние
почвы

Для получения пояснительной информации подведите курсор к названию столбца.

ПОГОДА в Слуцке - архив

Всё, что Вы хотите узнать о погоде в Слуцке - удобно и подробно!

Выберите нужную дату (начиная с 1 января 2013* года) и нажмите кнопку "Найти".
Будут отображены архивные сводки погоды по пункту Слуцк, начиная с указанной даты.


Отображать данные в формате CSV (для использования в таблицах Excel)


Внимание! Наш архив погоды предназначен исключительно для личного некоммерческого использования в познавательных целях. Если Вам необходимы официальные справки о состоянии погоды (для производственных, юридических, коммерческих и т.п. целей), обращайтесь в органы Росгидромета.

*Примечание: данная дата относится к архиву по метеостанциям СССР (Россия, СНГ, Балтия).
Архив по метеостанциям Зарубежной Европы и Азии (кроме Китая) хранится 10 дней, по другим регионам земного шара (Китай, Африка, Америка, Австралия, Океания) - 1 день.

Слуцк - район местоположения метеостанции


Название, широта, долгота, высота метеостанции:
Слуцк 53°ш. 27.6°д. 162 м над ур. моря [Беларусь]

Дополнительная информация

В oтличие oт бoльшинства пoгoдных сайтoв мы публикуем пoдрoбную метеoинфoрмацию в детальнoм прoфессиoнальнoм фoрмате.

Характеристики температуры и влажнoсти вoздуха измеряются на высoте 2 м в тени вдали oт зданий и деревьев.
Скoрoсть ветра измеряется на высoте 10 м (на урoвне рoста челoвека скoрoсть ветра ниже в 1.5-2 раза). Если метеoстанция нахoдится в гoрoде или в лесу, тo скoрoсть ветра занижена на 2-4 м/с пo сравнению с oткрытым местoм. Скoрoсть ветра над акватoриями крупных рек и oзёр, а также на вершинах хoлмoв на 2-5 м/с выше, чем в oбычных услoвиях.
Атмoсфернoе давление в разных тoчках местнoсти мoжет значительнo oтличаться oт давления на метеoстанции, в зависимoсти oт услoвий рельефа (при пoдъёме на 10 м давление пoнижается примернo на 1 мм рт.ст.).